Weather in Serpovoye

Russia / Tambov Oblast     53°37′09″N   41°50′58″E
В апреле 2022 года жителям России запретили посещать сайт meteo.paraplan.net по решению Генеральной прокуратуры. Аудитория сайта уменьшилась в 10 раз. Владельцы сайта не видят смысла в поддержке погодного сервера в таких условиях. Сайт будет закрыт в октябре.
temp.,
°C
wind,
m/s
gust,
m/s
humid.,
%
clouds,
%
prec.,
mm/h
press.,
hPa
HPBL,
m
3 october, mon
mon300:00+16se4888100 0.8 1003212
03:00+17se71677100 0.9 1001630
06:00+16se81871100 0.0 999770
09:00+17se91766100 0.0 9991121
12:00+14s71487100 2.4 10021102
15:00+14ssw8146811 2.8 10061676
18:00+11s5117158 0.0 1009478
21:00+10sse513805 0.0 1011515
4 october, tue
tue400:00+10sse5127917 0.0 1012436
03:00+9sse513816 0.0 1013405
06:00+9sse5147795 0.0 1014450
09:00+12sse5137098 0.0 1014647
12:00+15sse71156100 0.0 10141210
15:00+16sse6115997 0.1 10141591
18:00+13sse413766 0.9 1014515
21:00+12ssw71486100 2.0 1015884
5 october, wed
wed500:00+12s51081100 0.3 1016435
03:00+11s51086100 0.4 1016454
06:00+10s51186100 0.0 1016643
09:00+11ssw61075100 0.0 10161087
12:00+11sw6107093 0.1 10161319
15:00+12sw71067100 0.4 10161501
18:00+9wsw498390 0.6 1017887
21:00+8sw498396 0.7 1018566
6 october, thu
thu600:00+6wsw38908 0.0 1018298
03:00+5sw379656 0.0 1019215
06:00+6sw3792100 0.6 1018408
09:00+8w478495 0.8 1019546
12:00+11w576567 0.2 10191310
15:00+8wsw4786100 0.4 1019420
18:00+9sw41194100 0.4 1019536
21:00+11sw5118845 0.7 1017419
7 october, fri
fri700:00+11wsw51291100 0.0 1017488
03:00+10wsw5129210 0.0 1016434
06:00+9wsw4109699 0.0 1017338
09:00+11wnw61086100 0.0 1018717
12:00+15wnw69610 0.0 10191070
15:00+15wnw69590 0.0 10191279
18:00+10nw37794 0.0 1022208
21:00+9wnw410830 0.0 1023360